N511WM KMCO-KMKY

Flight info

Callsign N511WM
Flight time 0h 47m
Altitude 14000
Route FSHUN LBV
Aircraft BE60/L-SDFGRY/C

Departure

Time 2026-04-20 15:08
Airport Orlando International Airport (KMCO)

Arrival

Time 2026-04-20 15:55
Airport Marco Island Executive Airport (KMKY)
Time Latitude Longitude Altitude Speed Heading
2026-04-20 14:49 28.42199 -81.33141 95 ft 0 kts 359°
2026-04-20 15:00 28.42216 -81.33126 95 ft 7 kts 83°
2026-04-20 15:01 28.42221 -81.33036 95 ft 15 kts 84°
2026-04-20 15:01 28.42191 -81.32923 97 ft 16 kts 145°
2026-04-20 15:01 28.42070 -81.32914 97 ft 22 kts 180°
2026-04-20 15:01 28.41900 -81.32909 103 ft 27 kts 180°
2026-04-20 15:02 28.41756 -81.32909 104 ft 22 kts 180°
2026-04-20 15:02 28.41605 -81.32909 102 ft 15 kts 180°
2026-04-20 15:02 28.41537 -81.32875 102 ft 11 kts 101°
2026-04-20 15:02 28.41537 -81.32791 103 ft 8 kts 99°
2026-04-20 15:03 28.41538 -81.32775 103 ft 0 kts 47°
2026-04-20 15:07 28.41539 -81.32744 103 ft 7 kts 93°
2026-04-20 15:07 28.41549 -81.32676 103 ft 11 kts 45°
2026-04-20 15:07 28.41674 -81.32661 102 ft 37 kts 360°
2026-04-20 15:07 28.42131 -81.32675 100 ft 89 kts 356°
2026-04-20 15:08 28.42827 -81.32688 224 ft 113 kts
2026-04-20 15:08 28.43649 -81.32687 601 ft 120 kts
2026-04-20 15:08 28.44476 -81.32723 1132 ft 119 kts
2026-04-20 15:08 28.45309 -81.32782 1574 ft 120 kts
2026-04-20 15:09 28.46134 -81.32835 2014 ft 122 kts
2026-04-20 15:09 28.46938 -81.33206 2398 ft 141 kts 316°
2026-04-20 15:09 28.47130 -81.34338 2772 ft 160 kts 257°
2026-04-20 15:09 28.46423 -81.35297 3200 ft 163 kts 204°
2026-04-20 15:10 28.45401 -81.35809 3727 ft 160 kts 200°
2026-04-20 15:10 28.44345 -81.36210 4251 ft 157 kts 186°
2026-04-20 15:10 28.43279 -81.36430 4779 ft 158 kts 188°
2026-04-20 15:10 28.42202 -81.36703 5283 ft 160 kts 191°
2026-04-20 15:11 28.41118 -81.36996 5795 ft 161 kts 194°
2026-04-20 15:11 28.40019 -81.37296 6296 ft 163 kts 195°
2026-04-20 15:11 28.38920 -81.37598 6825 ft 163 kts 195°
2026-04-20 15:11 28.37802 -81.37902 7278 ft 166 kts 195°
2026-04-20 15:12 28.36687 -81.38208 7784 ft 164 kts 196°
2026-04-20 15:12 28.35580 -81.38512 8265 ft 164 kts 196°
2026-04-20 15:12 28.34475 -81.38814 8673 ft 163 kts 195°
2026-04-20 15:12 28.33364 -81.39116 8993 ft 165 kts 197°
2026-04-20 15:13 28.32248 -81.39421 9321 ft 165 kts 197°
2026-04-20 15:13 28.31132 -81.39728 9654 ft 164 kts 197°
2026-04-20 15:13 28.30023 -81.40029 9990 ft 164 kts 197°
2026-04-20 15:13 28.28912 -81.40332 10301 ft 164 kts 197°
2026-04-20 15:14 28.27803 -81.40635 10618 ft 164 kts 197°
2026-04-20 15:14 28.26690 -81.40939 10909 ft 165 kts 199°
2026-04-20 15:14 28.25571 -81.41245 11215 ft 165 kts 198°
2026-04-20 15:14 28.24448 -81.41551 11501 ft 167 kts 200°
2026-04-20 15:15 28.23313 -81.41834 11801 ft 169 kts 192°
2026-04-20 15:15 28.22141 -81.41837 12126 ft 171 kts 182°
2026-04-20 15:15 28.20947 -81.41783 12439 ft 171 kts 183°
2026-04-20 15:15 28.19755 -81.41756 12785 ft 171 kts 184°
2026-04-20 15:16 28.18564 -81.41733 13106 ft 171 kts 183°
2026-04-20 15:16 28.17371 -81.41710 13421 ft 172 kts 185°
2026-04-20 15:16 28.16171 -81.41687 13765 ft 173 kts 185°
2026-04-20 15:16 28.14956 -81.41666 14008 ft 181 kts 185°
2026-04-20 15:17 28.13621 -81.41647 14023 ft 202 kts 185°
2026-04-20 15:17 28.12159 -81.41618 13999 ft 217 kts 183°
2026-04-20 15:17 28.10611 -81.41586 13997 ft 228 kts 183°
2026-04-20 15:17 28.09001 -81.41554 13992 ft 235 kts 182°
2026-04-20 15:18 28.07341 -81.41522 13990 ft 240 kts 182°
2026-04-20 15:18 28.05649 -81.41488 13992 ft 245 kts 183°
2026-04-20 15:18 28.03947 -81.41456 13985 ft 249 kts 182°
2026-04-20 15:18 28.02201 -81.41423 13986 ft 252 kts 182°
2026-04-20 15:19 28.00438 -81.41388 13987 ft 254 kts 182°
2026-04-20 15:19 27.98661 -81.41353 13987 ft 256 kts 182°
2026-04-20 15:19 27.96868 -81.41319 13986 ft 259 kts 182°
2026-04-20 15:19 27.95060 -81.41284 13986 ft 260 kts 182°
2026-04-20 15:20 27.93244 -81.41249 13983 ft 261 kts 182°
2026-04-20 15:20 27.91429 -81.41215 13978 ft 261 kts 183°
2026-04-20 15:20 27.89618 -81.41180 13978 ft 261 kts 183°
2026-04-20 15:20 27.87795 -81.41146 13978 ft 263 kts 182°
2026-04-20 15:21 27.85964 -81.41111 13975 ft 264 kts 182°
2026-04-20 15:21 27.84129 -81.41074 13976 ft 264 kts 182°
2026-04-20 15:21 27.82298 -81.41039 13975 ft 263 kts 182°
2026-04-20 15:21 27.80470 -81.41005 13985 ft 264 kts 183°
2026-04-20 15:22 27.78619 -81.40970 13974 ft 267 kts 182°
2026-04-20 15:22 27.76755 -81.40934 13978 ft 269 kts 182°
2026-04-20 15:22 27.74878 -81.40897 13971 ft 270 kts 182°
2026-04-20 15:22 27.73000 -81.40863 13966 ft 269 kts 182°
2026-04-20 15:23 27.71138 -81.40825 13963 ft 266 kts 182°
2026-04-20 15:23 27.69291 -81.40789 13960 ft 264 kts 182°
2026-04-20 15:23 27.67460 -81.40755 13960 ft 262 kts 182°
2026-04-20 15:23 27.65676 -81.40720 13962 ft 256 kts 182°
2026-04-20 15:24 27.63905 -81.40683 13961 ft 253 kts 183°
2026-04-20 15:24 27.62164 -81.40651 13963 ft 249 kts 182°
2026-04-20 15:24 27.60435 -81.40621 13961 ft 247 kts 182°
2026-04-20 15:24 27.58730 -81.40587 13962 ft 245 kts 182°
2026-04-20 15:25 27.57034 -81.40555 13962 ft 243 kts 183°
2026-04-20 15:25 27.55339 -81.40522 13958 ft 243 kts 183°
2026-04-20 15:25 27.53653 -81.40489 13975 ft 243 kts 182°
2026-04-20 15:25 27.51962 -81.40459 13980 ft 243 kts 182°
2026-04-20 15:26 27.50269 -81.40426 13980 ft 243 kts 182°
2026-04-20 15:26 27.48573 -81.40391 13981 ft 244 kts 182°
2026-04-20 15:26 27.46876 -81.40361 13982 ft 244 kts 183°
2026-04-20 15:26 27.45174 -81.40334 13983 ft 245 kts 182°
2026-04-20 15:27 27.43466 -81.40296 13983 ft 246 kts 182°
2026-04-20 15:27 27.41758 -81.40263 13954 ft 246 kts 182°
2026-04-20 15:27 27.40047 -81.40223 13950 ft 243 kts 182°
2026-04-20 15:27 27.38360 -81.40193 13948 ft 242 kts 184°
2026-04-20 15:28 27.36670 -81.40161 13953 ft 243 kts 182°
2026-04-20 15:28 27.34972 -81.40138 13954 ft 245 kts 182°
2026-04-20 15:28 27.33261 -81.40108 13952 ft 246 kts 182°
2026-04-20 15:28 27.31550 -81.40070 13943 ft 244 kts 182°
2026-04-20 15:29 27.29876 -81.40035 13938 ft 242 kts 184°
2026-04-20 15:29 27.28189 -81.40009 13939 ft 242 kts 182°
2026-04-20 15:29 27.26509 -81.39974 13937 ft 241 kts 182°
2026-04-20 15:29 27.24837 -81.39940 13940 ft 240 kts 182°
2026-04-20 15:30 27.23162 -81.39906 13941 ft 241 kts 182°
2026-04-20 15:30 27.21482 -81.39878 13941 ft 241 kts 183°
2026-04-20 15:30 27.19807 -81.39849 13939 ft 239 kts 184°
2026-04-20 15:30 27.18146 -81.39811 13940 ft 237 kts 184°
2026-04-20 15:31 27.16498 -81.39782 13941 ft 237 kts 184°
2026-04-20 15:31 27.15408 -81.39762 13940 ft 236 kts 184°
2026-04-20 15:31 27.13771 -81.39731 13939 ft 235 kts 184°
2026-04-20 15:31 27.12140 -81.39701 13937 ft 234 kts 184°
2026-04-20 15:32 27.10517 -81.39669 13936 ft 233 kts 184°
2026-04-20 15:32 27.08890 -81.39638 13932 ft 233 kts 184°
2026-04-20 15:32 27.07269 -81.39608 13930 ft 233 kts 184°
2026-04-20 15:32 27.05653 -81.39578 13929 ft 232 kts 184°
2026-04-20 15:33 27.04037 -81.39547 13928 ft 232 kts 184°
2026-04-20 15:33 27.02423 -81.39516 13928 ft 232 kts 184°
2026-04-20 15:33 27.00810 -81.39485 13928 ft 232 kts 184°
2026-04-20 15:33 26.99193 -81.39456 13936 ft 233 kts 184°
2026-04-20 15:34 26.97556 -81.39426 13936 ft 236 kts 184°
2026-04-20 15:34 26.95912 -81.39394 13929 ft 236 kts 184°
2026-04-20 15:34 26.94263 -81.39362 13928 ft 236 kts 184°
2026-04-20 15:34 26.92623 -81.39331 13927 ft 235 kts 184°
2026-04-20 15:35 26.90991 -81.39300 13915 ft 234 kts 184°
2026-04-20 15:35 26.89367 -81.39269 13924 ft 233 kts 184°
2026-04-20 15:35 26.87746 -81.39238 13922 ft 232 kts 184°
2026-04-20 15:35 26.86134 -81.39208 13922 ft 231 kts 184°
2026-04-20 15:36 26.84526 -81.39178 13917 ft 231 kts 184°
2026-04-20 15:36 26.82918 -81.39188 13915 ft 228 kts 192°
2026-04-20 15:36 26.81408 -81.39627 13922 ft 224 kts 203°
2026-04-20 15:36 26.79918 -81.40141 13924 ft 225 kts 202°
2026-04-20 15:37 26.78419 -81.40639 13922 ft 224 kts 202°
2026-04-20 15:37 26.76946 -81.41139 13922 ft 224 kts 202°
2026-04-20 15:37 26.75459 -81.41646 13923 ft 224 kts 202°
2026-04-20 15:37 26.73966 -81.42152 13923 ft 224 kts 202°
2026-04-20 15:38 26.72474 -81.42659 13918 ft 224 kts 202°
2026-04-20 15:38 26.70981 -81.43166 13918 ft 224 kts 202°
2026-04-20 15:38 26.69487 -81.43672 13919 ft 224 kts 202°
2026-04-20 15:38 26.67989 -81.44180 13919 ft 225 kts 202°
2026-04-20 15:39 26.66494 -81.44687 13919 ft 224 kts 202°
2026-04-20 15:39 26.65000 -81.45193 13919 ft 224 kts 202°
2026-04-20 15:39 26.63512 -81.45696 13917 ft 221 kts 202°
2026-04-20 15:39 26.62033 -81.46193 13916 ft 221 kts 202°
2026-04-20 15:40 26.60560 -81.46693 13910 ft 221 kts 202°
2026-04-20 15:40 26.59105 -81.47191 13911 ft 222 kts 202°
2026-04-20 15:40 26.57624 -81.47692 13909 ft 223 kts 202°
2026-04-20 15:40 26.56139 -81.48193 13908 ft 223 kts 202°
2026-04-20 15:41 26.54651 -81.48696 13907 ft 223 kts 202°
2026-04-20 15:41 26.53163 -81.49200 13907 ft 224 kts 202°
2026-04-20 15:41 26.51673 -81.49703 13908 ft 224 kts 202°
2026-04-20 15:41 26.50181 -81.50207 13908 ft 224 kts 202°
2026-04-20 15:42 26.48689 -81.50711 13912 ft 224 kts 202°
2026-04-20 15:42 26.47199 -81.51215 13915 ft 224 kts 202°
2026-04-20 15:42 26.45709 -81.51718 13912 ft 224 kts 202°
2026-04-20 15:42 26.44218 -81.52222 13911 ft 224 kts 202°
2026-04-20 15:43 26.42724 -81.52725 13908 ft 224 kts 202°
2026-04-20 15:43 26.41233 -81.53228 13908 ft 224 kts 202°
2026-04-20 15:43 26.39741 -81.53732 13907 ft 224 kts 202°
2026-04-20 15:43 26.38246 -81.54238 13862 ft 226 kts 202°
2026-04-20 15:44 26.36695 -81.54765 13493 ft 240 kts 202°
2026-04-20 15:44 26.35056 -81.55319 13117 ft 250 kts 201°
2026-04-20 15:44 26.33367 -81.55885 12754 ft 257 kts 201°
2026-04-20 15:44 26.31637 -81.56467 12390 ft 262 kts 200°
2026-04-20 15:45 26.29881 -81.57058 12040 ft 263 kts 200°
2026-04-20 15:45 26.28121 -81.57636 11698 ft 264 kts 197°
2026-04-20 15:45 26.26298 -81.57927 11354 ft 266 kts 186°
2026-04-20 15:45 26.24450 -81.58023 11011 ft 265 kts 186°
2026-04-20 15:46 26.22615 -81.58194 10680 ft 264 kts 188°
2026-04-20 15:46 26.20797 -81.58433 10367 ft 262 kts 189°
2026-04-20 15:46 26.18986 -81.58656 10040 ft 262 kts 188°
2026-04-20 15:46 26.17178 -81.58854 9683 ft 261 kts 187°
2026-04-20 15:47 26.15379 -81.59054 9352 ft 259 kts 187°
2026-04-20 15:47 26.13594 -81.59260 9011 ft 257 kts 188°
2026-04-20 15:47 26.11820 -81.59466 8669 ft 256 kts 187°
2026-04-20 15:47 26.10049 -81.59666 8326 ft 254 kts 187°
2026-04-20 15:48 26.08295 -81.59865 7987 ft 252 kts 187°
2026-04-20 15:48 26.06553 -81.60068 7674 ft 251 kts 187°
2026-04-20 15:48 26.04823 -81.60263 7365 ft 250 kts 186°
2026-04-20 15:48 26.03099 -81.60459 7058 ft 248 kts 186°
2026-04-20 15:49 26.01384 -81.60655 6751 ft 243 kts 186°
2026-04-20 15:49 25.99825 -81.60830 6425 ft 210 kts 187°
2026-04-20 15:49 25.98453 -81.60997 6025 ft 188 kts 193°
2026-04-20 15:49 25.97387 -81.61676 5593 ft 173 kts 233°
2026-04-20 15:50 25.96982 -81.62876 5178 ft 163 kts 261°
2026-04-20 15:50 25.97085 -81.64095 4760 ft 158 kts 287°
2026-04-20 15:50 25.97423 -81.65238 4345 ft 154 kts 288°
2026-04-20 15:50 25.97744 -81.66309 4000 ft 135 kts 288°
2026-04-20 15:51 25.98027 -81.67258 3566 ft 126 kts 288°
2026-04-20 15:51 25.98293 -81.68152 3116 ft 122 kts 289°
2026-04-20 15:51 25.98558 -81.69044 2662 ft 121 kts 289°
2026-04-20 15:51 25.98688 -81.69957 2197 ft 122 kts 253°
2026-04-20 15:52 25.98133 -81.70610 1729 ft 119 kts 190°
2026-04-20 15:52 25.97337 -81.70532 1268 ft 114 kts 164°
2026-04-20 15:52 25.96576 -81.70343 984 ft 105 kts 165°
2026-04-20 15:53 25.95414 -81.69632 1005 ft 98 kts 88°
2026-04-20 15:53 25.95544 -81.68901 1001 ft 97 kts 73°
2026-04-20 15:53 25.95692 -81.68180 1003 ft 95 kts 73°
2026-04-20 15:53 25.95874 -81.67470 928 ft 97 kts 61°
2026-04-20 15:54 25.96431 -81.67009 682 ft 100 kts 20°
2026-04-20 15:54 25.97068 -81.66848 470 ft 91 kts
2026-04-20 15:54 25.97700 -81.66813 270 ft 91 kts 357°
2026-04-20 15:54 25.98314 -81.66957 137 ft 89 kts 351°
2026-04-20 15:55 25.98922 -81.67114 23 ft 87 kts 351°
2026-04-20 15:55 25.99435 -81.67234 8 ft 64 kts 347°
2026-04-20 15:55 25.99812 -81.67321 12 ft 46 kts 346°
2026-04-20 15:55 26.00058 -81.67382 14 ft 24 kts 347°
2026-04-20 15:56 26.00100 -81.67439 15 ft 12 kts 226°
2026-04-20 15:56 26.00034 -81.67458 15 ft 6 kts 229°
2026-04-20 15:56 26.00038 -81.67491 15 ft 0 kts 266°